Regional Weather Roundup
Issued by NWS Grand Forks, ND

Home | Current Version | Previous Version | Graphics & Text | Print | Product List | Glossary On
Versions: 1 2 3 4 5 6 7 8 9 10 11 12 13 14 15 16 17 18 19 20 21 22 23 24 25 26 27 28 29 30 31 32 33 34 35 36 37 38 39 40 41 42 43 44 45 46 47 48 49 50
618
ASUS43 KFGF 120410
RWRFGF
PRAIRIE TO PINES  WEATHER ROUNDUP
NATIONAL WEATHER SERVICE EASTERN NORTH DAKOTA/GRAND FORKS ND
1000 PM CST THU FEB 11 2016

 **SATELLITE DATA USED TO AUGMENT SKY COVER AT AUTOMATED STATIONS**
 *****  WEATHER ACROSS EASTERN NORTH DAKOTA  *****

CITY           SKY/WX    TMP DP  RH WIND       PRES   REMARKS
GRAND FORKS    CLOUDY    11   5  77 NW9       30.31R WCI  -2
GRAND FRKS AFB CLOUDY    10   5  79 N8        30.31R WCI  -1
DEVILS LAKE    CLOUDY     8   4  83 NW6       30.28S WCI  -2
FARGO          CLOUDY    12   6  77 NW8       30.29R WCI   0
WAHPETON ARPT  CLOUDY    12   5  73 NW9       30.29R WCI   0
$$

 ***** WEATHER ACROSS CENTRAL AND WESTERN NORTH DAKOTA  *****

CITY           SKY/WX    TMP DP  RH WIND       PRES   REMARKS
BISMARCK       MOCLDY    21  13  71 N7        30.29S WCI  12
MINOT          CLOUDY    19  10  68 NW7       30.28R WCI  10
JAMESTOWN      PTCLDY     7   3  84 NW7       30.26S WCI  -5
MINOT AFB      CLOUDY    17  13  88 N8        30.28R WCI   6
GARRISON         N/A     13  10  88 N5        30.27R WCI   5
WILLISTON      CLOUDY    20  16  84 N3        30.31R
DICKINSON      CLOUDY    22  18  85 N10       30.22R WCI  11
HETTINGER      LGT SNOW  23  19  85 W6        30.24R FOG     WCI  16
$$

 *****  OTHER AIRPORT OBSERVATIONS IN OUR AREA  *****

CITY           SKY/WX    TMP DP  RH WIND       PRES   REMARKS
WALHALLA       FAIR       7   1  78 NW12      30.32S WCI  -9
GRAFTON AIRPOR FAIR       9   5  85 NW9       30.34R WCI  -5
VALLEY CITY AR CLOUDY     9   5  85 NW10      30.28S WCI  -6
CANDO          NOT AVBL
CAVALIER APRT  FAIR       9   1  72 NW14      30.32R WCI  -8
GWINNER        MOCLDY    12   9  85 NW7       30.27F WCI   2
SHEYENNE NWR     N/A      9   4  80 NW3       29.95S
ROLLA          MOCLDY     5   1  85 N14       30.26S WCI -12
 ***** THE ABOVE OBSERVATIONS ARE NON NWS ARE NOT QUALITY
       CONTROLLED AND MAY MIS-REPORT RAIN FOR SNOW...
$$

  *****  WEATHER ACROSS NORTHERN MINNESOTA  *****

CITY           SKY/WX    TMP DP  RH WIND       PRES   REMARKS
FLAG ISLAND    CLEAR      1  -4  78 NW13      30.19R WCI -16
WARROAD        CLEAR      3   0  85 W9        30.21S WCI -11
ROSEAU         CLEAR      1  -2  85 W8        30.23S WCI -12
HALLOCK        CLEAR      3   0  85 NW9       30.30R WCI -11
THF RVR FALLS  PTCLDY     7  -6  56 NW10      30.26S WCI  -8
BAUDETTE       PTCLDY     2  -4  76 W10       30.17S WCI -14
WASKISH        CLEAR      3   0  85 W7        30.18S WCI  -9
CROOKSTON      CLOUDY     9   5  85 N12       30.31R WCI  -6
GREENBUSH NDAW   N/A      1  -2  85 NW9         N/A  WCI -14
$$
  *****  WEATHER ACROSS CENTRAL AND WEST MINNESOTA  *****

CITY           SKY/WX    TMP DP  RH WIND       PRES   REMARKS
FOSSTON        FLURRIES   9   3  78 NW12      30.24R WCI  -6
BEMIDJI        LGT SNOW   8   4  85 W9        30.18S WCI  -6
PARK RAPIDS    CLOUDY     8   0  69 NW9       30.19R WCI  -5
ELBOW LAKE     CLOUDY    12   9  87 W9        30.25R FOG     WCI   0
WADENA         CLOUDY    10   3  72 NW10      30.20S WCI  -3
DETROIT LAKES  FLURRIES  10   7  85 NW9       30.24R WCI  -2
MOORHEAD       CLOUDY    10   7  85 NW8       30.29S WCI  -1
FERGUS FALLS   CLOUDY    12   7  79 NW12      30.29R WCI  -2
MORRIS MN      LGT SNOW  14  10  85 NW9       30.23S WCI   2
STAPLES        CLOUDY    10   5  79 NW9       30.19S WCI  -2
$$
  *****  WEATHER ELSEWHERE ACROSS MINNESOTA  *****

CITY           SKY/WX    TMP DP  RH WIND       PRES   REMARKS
DULUTH         MOCLDY    11  -2  56 W10       30.10F WCI  -3
INTRNTL FALLS  CLEAR      4  -3  73 NW15      30.13S WCI -14
ELY            CLOUDY     7   0  72 W9        30.07F WCI  -7
CLOQUET        CLOUDY    12   0  57 W8        30.12F WCI   1
WHEATON        FLURRIES  14  10  85 NW9       30.30R WCI   2
BRAINERD       CLOUDY    13   3  64 NW8       30.18S WCI   2
HIBBING        CLOUDY     8   0  69 W10       30.12S WCI  -6
ALEXANDRIA     CLOUDY    12   8  84 NW7       30.21R WCI   1
SAINT CLOUD    CLOUDY    13   9  84 SW6       30.21F WCI   4
MINNEAPOLIS    LGT SNOW  14   8  77 SW3       30.24S
$$

  *****  WEATHER ACROSS SOUTH DAKOTA  *****

CITY           SKY/WX    TMP DP  RH WIND       PRES   REMARKS
SIOUX FALLS    LGT SNOW  11   7  84 CALM      30.21S
BROOKINGS      FLURRIES  14  11  87 CALM      30.19F
WATERTOWN      CLOUDY    18  12  77 N12       30.20R WCI   5
HURON          CLOUDY    22  20  92 NW7       30.25R WCI  13
SISSETON         N/A     14  10  84 N13       30.26R WCI   0
ABERDEEN       CLOUDY    17  12  80 N8        30.28R WCI   7
MITCHELL       CLOUDY    19  17  92 CALM      30.25R
PIERRE         CLOUDY    27  24  89 NW7       30.23S WCI  19
MOBRIDGE       CLOUDY    22  17  81 NE6       30.24R WCI  14
RAPID CITY     CLOUDY    32  29  88 N6        30.22R
$$

  *****  SOME WEATHER IN NEARBY STATES *****

CITY           SKY/WX    TMP DP  RH WIND       PRES   REMARKS
GLASGOW MT     CLOUDY    31  25  78 N3        30.27R
GREAT FALLS MT PTCLDY    36  30  79 NE5       30.26S
CHEYENNE WY    CLOUDY    39  24  55 NW6       30.26S
SCOTTSBLUFF NE CLOUDY    34  27  75 NW8       30.22S
OMAHA NE       CLOUDY    25  19  78 CALM      30.21S
DES MOINES IA  LGT SNOW  19  14  81 E3        30.25S
DAVENPORT IA   CLOUDY    20   6  55 CALM      30.26F
CHICAGO IL     MOCLDY    17   7  64 CALM      30.26F
EAU CLAIRE WI  CLOUDY    14   2  58 W10       30.20F WCI   1
LA CROSSE WI   CLOUDY    15   2  56 SW6       30.25F WCI   6
$$

  *****  SOME NATIONAL WEATHER *****

CITY           SKY/WX    TMP DP  RH WIND       PRES   REMARKS
LA GUARDIA NY  PTCLDY    21   0  39 W20G26    30.18R WCI   6
RALEIGH NC     CLEAR     28   8  43 NE7       30.30R WCI  21
ATLANTA GA     PTCLDY    43  24  47 N7        30.18R
NEW ORLEANS LA PTCLDY    60  54  80 SW7       30.22R
OKLAHOMA CITY  CLEAR     45  32  60 NW6       30.17R
ALBUQUERQUE NM CLOUDY    53  17  24 N9        30.32S
SALT LAKE CITY CLOUDY    30  27  88 N7        30.42S FOG     WCI  23
LOS ANGELES CA CLEAR     67  41  38 SW3       30.10R
BOISE ID       MOCLDY    37  33  85 SE7       30.31F
SEATTLE WA     LGT RAIN  51  48  89 SE8       30.11F
$$

*** WEATHER ACROSS MANITOBA...SASKATCHEWAN AND ONTARIO ***
                ***ONTARIO***

CITY           SKY/WX    TMP DP  RH WIND       PRES   REMARKS
GERALDTON      FLURRIES   3  -2  78 W7        29.88S WCI  -9
THUNDER BAY    PTCLDY     5  -2  72 W8        30.03F WCI  -8
SIOUX LOOKOUT  FLURRIES   1  -6  71 NW14      30.02R WCI -17
TORONTO        PTCLDY    10   3  72 SW13      30.17F WCI  -5
BIG TROUT LK   PTCLDY   -24 -33  62 NW8       30.10S WCI -43
PICKLE LAKE    NOT AVBL
DRYDEN         CLEAR      0  -8  71 W9        30.05S WCI -16
KENORA         CLEAR      0  -9  65 NW12G17   30.13S WCI -18
$$
                *** MANITOBA***

CITY           SKY/WX    TMP DP  RH WIND       PRES   REMARKS
BRANDON        PTCLDY    -4  -8  84 NW8       30.32S WCI -19
DAUPHIN        CLEAR     -8 -11  84 W8        30.39R WCI -23
ISLAND LAKE    PTCLDY   -18 -24  76 NW13G20   30.28R WCI -41
PILOT MOUND      N/A      0  -4  85 NW5         N/A  WCI -10
THE PAS        CLEAR     -9 -17  70 N14       30.47R WCI -31
THOMPSON       CLEAR    -20 -27  69 NW13      30.41R WCI -43
WINNIPEG       CLEAR     -6 -13  71 NW12      30.31S WCI -24
LYNN LAKE      CLEAR    -24 -31  69 NW13G18   30.49R WCI -48
CHURCHILL      CRYSTALS -24 -31  69 NW25G35   30.31F VSB 5/8 WCI -56
GILLAM         CLEAR    -24 -33  62 NW16G24   30.31R WCI -51
$$
                ***SASKATCHEWAN***

CITY           SKY/WX    TMP DP  RH WIND       PRES   REMARKS
ESTEVAN        MOCLDY    14   9  79 N9        30.31R WCI   2
KINDERSLEY     FLURRIES  14   9  79 E10       30.36R WCI   1
LLOYDMINSTER   MOCLDY     7   3  85 NE7       30.41R WCI  -5
PRINCE ALBERT  CLEAR     -6  -9  84 N7        30.48R WCI -20
REGINA         CLOUDY     7   3  85 N9        30.37R WCI  -7
YORKTON        CLEAR     -6 -11  77 NW9       30.38R WCI -22
N. BATTLEFORD  CLEAR      5   5 100 NE8       30.45R WCI  -8
LA RONGE       CLEAR     -8 -11  84 N5        30.54R WCI -19
SASKATOON      PTCLDY     5   1  85 NE7       30.46R WCI  -7
SWIFT CURRENT  CLOUDY    14  12  92 E14       30.30R WCI  -1
$$
NOTE: THESE ARE AUTOMATED STATIONS WITH LIMITED QUALITY CONTROL
      "FAIR" INDICATES FEW OR NO CLOUDS BELOW 12,000 FEET WITH NO
      SIGNIFICANT WEATHER AND/OR OBSTRUCTIONS TO VISIBILITY.
      SKY/WX - SKY CONDITION AND SIGNIFICANT WEATHER.
      TMP - AIR TEMPERATURE.    DP   - DEWPOINT TEMPERATURE.
      RH  - RELATIVE HUMIDITY.  PRES - PRESSURE.
      HX  - HEAT INDEX.         WCI  - WIND CHILL INDEX.
$




USA.gov is the U.S. government's official web portal to all federal, state and local government web resources and services.